Total_Precipitation_Accumulation
1.47 1.58 1.41 1.36 1.24 1.54 1.92 2.13 2.18 2.34 2.42 2.37 2.06 1.80 1.70 1.48 1.28 1.40 1.66 1.89 1.95 1.82 1.83 1.84 1.62 1.51 1.47 1.26 1.09 1.01 0.91 0.83 0.74 0.61 0.55 0.50 0.42 0.27 0.15 0.13 0.15 0.17 0.14
1.66 1.72 1.67 1.58 1.35 1.51 1.85 2.20 2.28 2.49 2.44 2.47 1.96 1.71 1.63 1.61 1.39 1.28 1.38 1.73 1.71 1.61 1.57 1.71 1.76 1.72 1.68 1.50 1.31 1.13 0.99 0.89 0.82 0.67 0.56 0.52 0.45 0.36 0.29 0.21 0.20 0.21 0.18
1.88 2.06 1.95 1.64 1.49 1.67 1.87 1.90 2.02 2.47 2.31 2.25 2.03 2.00 1.93 1.72 1.51 1.37 1.33 1.42 1.42 1.50 1.46 1.47 1.65 1.76 1.83 1.81 1.67 1.43 1.20 0.97 0.81 0.67 0.56 0.50 0.45 0.38 0.36 0.31 0.28 0.28 0.22
1.71 1.89 1.62 1.31 1.48 1.76 1.90 1.81 1.81 2.17 2.21 2.19 2.15 2.04 1.94 1.73 1.51 1.40 1.34 1.24 1.21 1.08 1.20 1.36 1.55 1.69 1.91 1.97 2.01 1.97 1.72 1.29 0.95 0.73 0.59 0.52 0.47 0.38 0.29 0.27 0.29 0.32 0.25
1.08 1.19 1.03 0.98 1.21 1.48 1.48 1.32 1.44 1.71 1.79 1.86 1.82 1.59 1.41 1.22 1.10 1.09 1.04 0.96 1.05 1.04 1.07 1.13 1.36 1.52 1.81 2.14 2.30 2.37 2.20 1.70 1.23 0.97 0.78 0.65 0.61 0.48 0.32 0.27 0.30 0.31 0.27
0.75 0.83 0.82 0.79 0.88 0.92 0.94 1.10 1.25 1.39 1.29 1.35 1.28 1.07 1.03 0.90 0.84 0.80 0.68 0.67 0.75 0.75 0.78 0.97 1.18 1.10 1.38 1.78 2.04 2.23 2.25 2.05 1.59 1.28 1.06 0.91 0.86 0.65 0.41 0.34 0.35 0.29 0.25
0.64 0.64 0.61 0.63 0.69 0.69 0.68 0.83 0.95 0.96 0.79 0.95 1.02 0.80 0.65 0.58 0.57 0.56 0.51 0.50 0.51 0.55 0.67 0.88 1.01 1.01 0.96 1.06 1.29 1.65 1.98 2.11 1.97 1.66 1.35 1.16 1.08 0.84 0.56 0.43 0.37 0.29 0.28
0.54 0.53 0.50 0.48 0.49 0.52 0.54 0.60 0.71 0.71 0.63 0.74 0.83 0.76 0.56 0.50 0.44 0.34 0.37 0.38 0.37 0.48 0.55 0.67 0.88 1.06 1.04 1.15 0.96 1.16 1.72 2.03 2.16 2.07 1.79 1.49 1.31 1.03 0.74 0.62 0.50 0.39 0.34
0.33 0.33 0.32 0.32 0.34 0.39 0.42 0.49 0.57 0.59 0.54 0.52 0.63 0.73 0.56 0.43 0.38 0.34 0.34 0.36 0.43 0.47 0.51 0.65 0.76 0.97 1.12 1.31 1.26 1.13 1.34 1.60 2.08 2.37 2.26 1.81 1.33 1.00 0.82 0.79 0.73 0.55 0.41
0.23 0.23 0.21 0.21 0.22 0.25 0.33 0.35 0.44 0.55 0.54 0.43 0.46 0.55 0.55 0.51 0.44 0.38 0.37 0.35 0.40 0.42 0.49 0.56 0.70 0.88 1.00 1.21 1.29 1.10 0.99 1.15 1.64 2.14 2.32 2.17 1.66 1.18 0.95 0.97 1.08 0.95 0.65
0.24 0.23 0.22 0.21 0.21 0.21 0.24 0.28 0.36 0.46 0.52 0.47 0.44 0.49 0.58 0.57 0.49 0.44 0.38 0.38 0.43 0.37 0.45 0.59 0.70 0.79 0.88 1.10 1.36 1.23 1.13 1.04 1.13 1.40 1.69 1.94 1.98 1.72 1.46 1.38 1.53 1.56 1.33
0.25 0.25 0.25 0.26 0.26 0.26 0.26 0.26 0.28 0.33 0.45 0.53 0.53 0.51 0.55 0.56 0.46 0.43 0.35 0.32 0.40 0.39 0.51 0.70 0.76 0.83 0.89 1.09 1.15 1.13 1.05 0.92 0.82 0.83 0.99 1.19 1.43 1.58 1.54 1.58 1.80 1.95 1.99
0.20 0.22 0.23 0.25 0.28 0.30 0.31 0.28 0.29 0.28 0.36 0.46 0.49 0.52 0.52 0.51 0.54 0.55 0.51 0.41 0.43 0.47 0.62 0.75 0.87 0.94 0.95 1.09 1.09 1.02 0.87 0.72 0.59 0.54 0.60 0.72 0.86 1.09 1.32 1.47 1.66 1.89 2.07
0.20 0.20 0.20 0.19 0.22 0.27 0.32 0.34 0.32 0.33 0.36 0.38 0.39 0.52 0.57 0.51 0.61 0.65 0.68 0.72 0.63 0.63 0.77 0.85 0.98 1.03 1.13 1.16 1.08 0.97 0.78 0.65 0.52 0.46 0.44 0.46 0.54 0.63 0.79 1.00 1.20 1.46 1.71
0.21 0.20 0.20 0.20 0.22 0.24 0.28 0.32 0.32 0.34 0.38 0.39 0.41 0.51 0.59 0.65 0.69 0.66 0.76 0.84 0.85 0.78 0.84 0.92 0.88 0.88 0.93 0.94 0.88 0.75 0.63 0.57 0.49 0.42 0.40 0.39 0.41 0.46 0.52 0.59 0.66 0.74 0.84
0.19 0.20 0.20 0.19 0.20 0.21 0.23 0.27 0.29 0.35 0.42 0.47 0.54 0.59 0.61 0.67 0.76 0.69 0.75 0.82 0.84 0.89 0.92 0.87 0.78 0.79 0.76 0.65 0.62 0.57 0.53 0.57 0.47 0.38 0.33 0.34 0.35 0.38 0.41 0.46 0.50 0.54 0.59
0.13 0.14 0.16 0.18 0.19 0.21 0.25 0.31 0.34 0.38 0.48 0.60 0.69 0.73 0.75 0.77 0.81 0.79 0.85 0.86 0.81 0.89 0.89 0.75 0.81 0.87 0.77 0.59 0.48 0.46 0.47 0.50 0.47 0.44 0.38 0.35 0.31 0.29 0.32 0.35 0.40 0.44 0.47
0.13 0.13 0.13 0.14 0.14 0.15 0.21 0.31 0.42 0.44 0.47 0.55 0.77 0.99 1.01 1.01 0.93 0.85 0.93 0.91 0.87 1.01 0.97 0.86 0.94 0.97 0.91 0.73 0.58 0.49 0.42 0.42 0.45 0.45 0.40 0.39 0.36 0.31 0.27 0.27 0.28 0.30 0.32
0.13 0.13 0.14 0.13 0.13 0.12 0.14 0.22 0.35 0.40 0.49 0.63 0.79 0.92 1.04 1.16 1.06 0.96 0.94 0.93 0.96 1.05 1.03 0.93 0.97 1.11 1.14 0.95 0.70 0.49 0.38 0.38 0.40 0.45 0.41 0.36 0.36 0.35 0.32 0.27 0.25 0.25 0.24
0.11 0.13 0.14 0.14 0.14 0.12 0.12 0.18 0.26 0.34 0.47 0.65 0.72 0.67 0.78 1.03 1.14 1.06 0.95 0.90 0.94 0.99 0.99 1.01 1.06 1.20 1.25 1.19 0.93 0.65 0.48 0.38 0.34 0.37 0.42 0.38 0.35 0.34 0.33 0.29 0.26 0.25 0.26
0.10 0.13 0.16 0.16 0.16 0.13 0.11 0.18 0.27 0.23 0.29 0.37 0.42 0.41 0.47 0.65 0.92 1.09 1.03 0.93 0.93 0.90 0.91 1.00 1.08 1.18 1.21 1.24 1.08 0.82 0.62 0.51 0.41 0.38 0.41 0.39 0.36 0.31 0.29 0.29 0.27 0.24 0.22
0.15 0.19 0.22 0.23 0.21 0.15 0.12 0.13 0.16 0.18 0.21 0.24 0.27 0.31 0.32 0.33 0.44 0.66 0.87 0.98 1.02 0.96 0.90 0.94 1.08 1.13 1.13 1.13 1.11 0.97 0.75 0.59 0.48 0.44 0.45 0.45 0.46 0.42 0.32 0.27 0.27 0.24 0.21
0.21 0.25 0.29 0.32 0.32 0.30 0.20 0.12 0.09 0.13 0.17 0.21 0.26 0.30 0.24 0.20 0.29 0.38 0.51 0.64 0.78 0.84 0.85 0.91 0.99 1.09 1.16 1.26 1.24 1.08 0.89 0.75 0.61 0.53 0.53 0.50 0.49 0.49 0.46 0.38 0.37 0.29 0.25
0.30 0.32 0.34 0.37 0.42 0.39 0.27 0.18 0.14 0.12 0.17 0.22 0.28 0.31 0.31 0.29 0.31 0.38 0.45 0.47 0.52 0.58 0.61 0.67 0.79 0.97 1.16 1.32 1.43 1.33 1.18 0.96 0.82 0.73 0.67 0.55 0.48 0.46 0.46 0.46 0.45 0.39 0.32
0.39 0.38 0.38 0.43 0.47 0.50 0.38 0.25 0.21 0.21 0.26 0.27 0.29 0.31 0.35 0.35 0.32 0.29 0.37 0.40 0.42 0.45 0.48 0.56 0.63 0.82 1.09 1.30 1.37 1.40 1.28 1.06 0.87 0.75 0.67 0.60 0.51 0.48 0.48 0.42 0.40 0.40 0.36
0.53 0.49 0.46 0.49 0.54 0.61 0.52 0.31 0.26 0.30 0.35 0.37 0.44 0.46 0.38 0.34 0.32 0.24 0.30 0.38 0.38 0.40 0.47 0.51 0.57 0.62 0.75 1.02 1.25 1.15 1.07 1.00 0.86 0.70 0.54 0.52 0.53 0.53 0.48 0.38 0.33 0.32 0.30